Location: Prague
(50.0830°N, 14.4670°E)
Time: 18:12:27
(UTC+01:00)

STARLINK-1710 - Pass Details

Date: 22 September 2020
Orbit: 378 x 381 km, 53.0° (Epoch: 30 October)

Event Time Altitude Azimuth Distance (km) Brightness Sun altitude
Exits shadow 03:59:32 21° 66° (ENE) 925 5.5 -26.2°
Drops below altitude 10° 04:00:43 10° 68° (ENE) 1,401 6.6 -26.1°
Sets 04:02:47 0° 70° (ENE) 2,256 8.0 -25.8°
